ASA621 KSEA-KSAN

Flight info

Callsign ASA621
Flight time 1h 17m
Altitude 35000
Route SUMMA2 SUMMA PAAGE Q11 PASKE HUULK COMIX2
Aircraft B738/M-SDE2E3FGHIRWXY/LB1

Departure

Time 2026-04-22 20:22
Airport Seattle–Tacoma International Airport (KSEA)

Arrival

Time 2026-04-22 21:39
Airport San Diego International Airport (KSAN)
Time Latitude Longitude Altitude Speed Heading
2026-04-22 20:16 47.44836 -122.30360 408 ft 0 kts 40°
2026-04-22 20:18 47.44797 -122.30395 405 ft 2 kts 307°
2026-04-22 20:18 47.44797 -122.30394 405 ft 0 kts 307°
2026-04-22 20:18 47.44799 -122.30399 407 ft 2 kts 306°
2026-04-22 20:19 47.44805 -122.30411 407 ft 1 kts 306°
2026-04-22 20:19 47.44811 -122.30423 407 ft 1 kts 306°
2026-04-22 20:19 47.44819 -122.30440 405 ft 7 kts 305°
2026-04-22 20:19 47.44900 -122.30579 404 ft 29 kts 329°
2026-04-22 20:20 47.45138 -122.30625 410 ft 39 kts 360°
2026-04-22 20:20 47.45407 -122.30624 422 ft 37 kts
2026-04-22 20:20 47.45650 -122.30619 429 ft 35 kts
2026-04-22 20:20 47.45913 -122.30620 434 ft 37 kts 360°
2026-04-22 20:21 47.46158 -122.30619 436 ft 34 kts
2026-04-22 20:21 47.46270 -122.30753 440 ft 22 kts 221°
2026-04-22 20:21 47.46062 -122.30778 431 ft 59 kts 180°
2026-04-22 20:21 47.45378 -122.30786 422 ft 135 kts 180°
2026-04-22 20:22 47.44252 -122.30781 673 ft 180 kts 181°
2026-04-22 20:22 47.42949 -122.30754 1401 ft 197 kts 182°
2026-04-22 20:22 47.41538 -122.30749 2176 ft 206 kts 181°
2026-04-22 20:22 47.40050 -122.30432 2681 ft 224 kts 172°
2026-04-22 20:23 47.33726 -122.28278 4067 ft 302 kts 169°
2026-04-22 20:23 47.28013 -122.26152 7330 ft 286 kts 169°
2026-04-22 20:23 47.24528 -122.24895 8655 ft 296 kts 168°
2026-04-22 20:23 47.16603 -122.22098 11239 ft 323 kts 167°
2026-04-22 20:24 47.11963 -122.20479 11772 ft 365 kts 166°
2026-04-22 20:24 47.06771 -122.18675 12440 ft 397 kts 166°
2026-04-22 20:24 47.03166 -122.17425 13199 ft 407 kts 166°
2026-04-22 20:24 46.97584 -122.15494 14451 ft 417 kts 166°
2026-04-22 20:25 46.91867 -122.13520 15668 ft 425 kts 166°
2026-04-22 20:25 46.86046 -122.11517 16850 ft 434 kts 165°
2026-04-22 20:25 46.80109 -122.09477 18017 ft 443 kts 165°
2026-04-22 20:25 46.74042 -122.07396 19065 ft 450 kts 165°
2026-04-22 20:26 46.67932 -122.05308 20282 ft 451 kts 166°
2026-04-22 20:26 46.61888 -122.03248 21347 ft 454 kts 166°
2026-04-22 20:26 46.55700 -122.01141 22318 ft 460 kts 166°
2026-04-22 20:26 46.49432 -121.99012 23260 ft 465 kts 166°
2026-04-22 20:27 46.43111 -121.96871 24093 ft 468 kts 166°
2026-04-22 20:27 46.36743 -121.94719 24961 ft 470 kts 166°
2026-04-22 20:27 46.30357 -121.92566 25739 ft 472 kts 166°
2026-04-22 20:27 46.23943 -121.90409 26473 ft 475 kts 166°
2026-04-22 20:28 46.17481 -121.88241 27137 ft 478 kts 166°
2026-04-22 20:28 46.10979 -121.86064 27745 ft 482 kts 166°
2026-04-22 20:28 46.04416 -121.83873 28436 ft 483 kts 166°
2026-04-22 20:28 45.97911 -121.81707 29435 ft 478 kts 165°
2026-04-22 20:29 45.91422 -121.79551 30198 ft 477 kts 166°
2026-04-22 20:29 45.85015 -121.77427 31113 ft 470 kts 166°
2026-04-22 20:29 45.78647 -121.75321 31798 ft 468 kts 165°
2026-04-22 20:29 45.72375 -121.73253 32728 ft 459 kts 165°
2026-04-22 20:30 45.66141 -121.71199 33288 ft 460 kts 165°
2026-04-22 20:30 45.60013 -121.69186 34025 ft 455 kts 165°
2026-04-22 20:30 45.53851 -121.67168 34546 ft 455 kts 164°
2026-04-22 20:30 45.47643 -121.65134 34845 ft 459 kts 165°
2026-04-22 20:31 45.41427 -121.63107 35126 ft 461 kts 165°
2026-04-22 20:31 45.28757 -121.58986 35088 ft 468 kts 164°
2026-04-22 20:32 45.16141 -121.54909 35094 ft 460 kts 163°
2026-04-22 20:32 45.03760 -121.50920 35069 ft 454 kts 164°
2026-04-22 20:33 44.91352 -121.46936 35099 ft 462 kts 164°
2026-04-22 20:33 44.78668 -121.42883 35091 ft 471 kts 165°
2026-04-22 20:34 44.65966 -121.38850 35061 ft 467 kts 165°
2026-04-22 20:34 44.53426 -121.34884 35065 ft 457 kts 165°
2026-04-22 20:35 44.41015 -121.30969 35075 ft 460 kts 164°
2026-04-22 20:35 44.28367 -121.26999 35089 ft 471 kts 165°
2026-04-22 20:36 44.15605 -121.23015 35075 ft 471 kts 165°
2026-04-22 20:36 44.02900 -121.19068 35070 ft 463 kts 165°
2026-04-22 20:37 43.90406 -121.15198 35101 ft 460 kts 165°
2026-04-22 20:37 43.77773 -121.11301 35108 ft 471 kts 165°
2026-04-22 20:38 43.64826 -121.07327 35086 ft 479 kts 165°
2026-04-22 20:38 43.51847 -121.03364 35080 ft 474 kts 165°
2026-04-22 20:39 43.39075 -120.99479 35091 ft 467 kts 165°
2026-04-22 20:39 43.26305 -120.95608 35105 ft 474 kts 166°
2026-04-22 20:40 43.13334 -120.91823 35102 ft 484 kts 169°
2026-04-22 20:40 43.00057 -120.88694 35092 ft 483 kts 170°
2026-04-22 20:41 42.86920 -120.85529 35091 ft 474 kts 170°
2026-04-22 20:41 42.73983 -120.82392 35107 ft 472 kts 171°
2026-04-22 20:42 42.60933 -120.79246 35128 ft 481 kts 171°
2026-04-22 20:42 42.47670 -120.76063 35122 ft 484 kts 171°
2026-04-22 20:43 42.34469 -120.72906 35127 ft 477 kts 171°
2026-04-22 20:43 42.21597 -120.69842 35141 ft 467 kts 172°
2026-04-22 20:44 42.08833 -120.66817 35166 ft 467 kts 172°
2026-04-22 20:44 41.95886 -120.63763 35150 ft 476 kts 172°
2026-04-22 20:45 41.82751 -120.60674 35150 ft 481 kts 172°
2026-04-22 20:45 41.69513 -120.57575 35137 ft 482 kts 172°
2026-04-22 20:46 41.49925 -120.53010 35137 ft 470 kts 173°
2026-04-22 20:46 41.37121 -120.50045 35190 ft 467 kts 173°
2026-04-22 20:47 41.24271 -120.47082 35183 ft 476 kts 173°
2026-04-22 20:47 41.11098 -120.44052 35147 ft 481 kts 174°
2026-04-22 20:48 40.97967 -120.40952 35147 ft 476 kts 171°
2026-04-22 20:48 40.85192 -120.36921 35140 ft 468 kts 170°
2026-04-22 20:49 40.72512 -120.32945 35157 ft 471 kts 171°
2026-04-22 20:49 40.59667 -120.28991 35164 ft 482 kts 171°
2026-04-22 20:50 40.46575 -120.24967 35137 ft 482 kts 171°
2026-04-22 20:50 40.33579 -120.20985 35132 ft 473 kts 172°
2026-04-22 20:51 40.20852 -120.17108 35141 ft 467 kts 172°
2026-04-22 20:51 40.08117 -120.13249 35143 ft 474 kts 173°
2026-04-22 20:52 39.95166 -120.09334 35163 ft 483 kts 173°
2026-04-22 20:52 39.82096 -120.05389 35146 ft 478 kts 173°
2026-04-22 20:53 39.69264 -120.01535 35123 ft 468 kts 174°
2026-04-22 20:53 39.56689 -119.97781 35204 ft 468 kts 174°
2026-04-22 20:54 39.43833 -119.93961 35177 ft 479 kts 175°
2026-04-22 20:54 39.17827 -119.86247 35115 ft 480 kts 175°
2026-04-22 20:55 38.92125 -119.78686 35126 ft 464 kts 176°
2026-04-22 20:55 38.67274 -119.71451 35185 ft 461 kts 176°
2026-04-22 20:56 38.41931 -119.64177 35154 ft 472 kts 177°
2026-04-22 20:56 38.16349 -119.56866 35144 ft 467 kts 178°
2026-04-22 20:57 37.91320 -119.49783 35188 ft 457 kts 178°
2026-04-22 20:57 37.66303 -119.42774 35210 ft 467 kts 179°
2026-04-22 20:58 37.40561 -119.35573 35178 ft 474 kts 179°
2026-04-22 20:58 37.15027 -119.28485 35190 ft 463 kts 180°
2026-04-22 20:59 36.90209 -119.21658 35234 ft 453 kts 180°
2026-04-22 20:59 36.65277 -119.14855 35230 ft 464 kts 180°
2026-04-22 21:00 36.39836 -119.07936 35209 ft 472 kts 179°
2026-04-22 21:00 36.23376 -119.03482 35202 ft 465 kts 179°
2026-04-22 21:01 36.17077 -119.01789 35239 ft 465 kts 180°
2026-04-22 21:01 36.10689 -119.00081 35245 ft 473 kts 179°
2026-04-22 21:02 36.04259 -118.98364 35226 ft 474 kts 179°
2026-04-22 21:02 35.97799 -118.96637 35231 ft 475 kts 179°
2026-04-22 21:03 35.91335 -118.94913 35241 ft 475 kts 179°
2026-04-22 21:03 35.84878 -118.93195 35215 ft 473 kts 179°
2026-04-22 21:04 35.78446 -118.91487 35213 ft 473 kts 179°
2026-04-22 21:04 35.72024 -118.89785 35217 ft 472 kts 179°
2026-04-22 21:05 35.65597 -118.88085 35186 ft 472 kts 179°
2026-04-22 21:05 35.59223 -118.86401 35199 ft 471 kts 179°
2026-04-22 21:06 35.52819 -118.84712 35197 ft 470 kts 179°
2026-04-22 21:06 35.46420 -118.83027 35163 ft 470 kts 179°
2026-04-22 21:07 35.40038 -118.81348 35193 ft 468 kts 178°
2026-04-22 21:07 35.33678 -118.79679 35205 ft 468 kts 178°
2026-04-22 21:08 35.27343 -118.78020 35197 ft 468 kts 178°
2026-04-22 21:08 35.20977 -118.76355 35194 ft 467 kts 178°
2026-04-22 21:09 35.14601 -118.74690 35204 ft 468 kts 178°
2026-04-22 21:09 35.08211 -118.73024 35193 ft 469 kts 178°
2026-04-22 21:10 35.01827 -118.71361 35175 ft 469 kts 178°
2026-04-22 21:10 34.95432 -118.69699 35190 ft 470 kts 178°
2026-04-22 21:11 34.89021 -118.68035 35174 ft 471 kts 178°
2026-04-22 21:11 34.82609 -118.66373 35164 ft 471 kts 178°
2026-04-22 21:12 34.76230 -118.64722 35153 ft 472 kts 178°
2026-04-22 21:12 34.69810 -118.63063 35141 ft 472 kts 178°
2026-04-22 21:13 34.64413 -118.61670 35139 ft 473 kts 178°
2026-04-22 21:13 34.58002 -118.59705 35110 ft 490 kts 163°
2026-04-22 21:14 34.52013 -118.55468 35130 ft 501 kts 158°
2026-04-22 21:14 34.46096 -118.51088 35134 ft 501 kts 158°
2026-04-22 21:15 34.40114 -118.46763 35147 ft 500 kts 159°
2026-04-22 21:15 34.34119 -118.42500 35171 ft 499 kts 159°
2026-04-22 21:16 34.28120 -118.38256 35171 ft 499 kts 159°
2026-04-22 21:16 34.22111 -118.34007 35136 ft 500 kts 159°
2026-04-22 21:17 34.16077 -118.29746 34598 ft 506 kts 159°
2026-04-22 21:17 34.13040 -118.27604 33969 ft 505 kts 158°
2026-04-22 21:17 34.10018 -118.25467 33240 ft 501 kts 158°
2026-04-22 21:18 34.07054 -118.23373 32551 ft 499 kts 158°
2026-04-22 21:18 34.04057 -118.21262 31838 ft 500 kts 158°
2026-04-22 21:18 34.01051 -118.19147 31122 ft 499 kts 157°
2026-04-22 21:18 33.98047 -118.17036 30397 ft 499 kts 156°
2026-04-22 21:19 33.95043 -118.14927 29536 ft 500 kts 156°
2026-04-22 21:19 33.92054 -118.12826 28974 ft 494 kts 156°
2026-04-22 21:19 33.89105 -118.10754 28366 ft 488 kts 156°
2026-04-22 21:19 33.86190 -118.08709 27806 ft 482 kts 156°
2026-04-22 21:20 33.83306 -118.06704 27288 ft 475 kts 157°
2026-04-22 21:20 33.80443 -118.04781 26838 ft 467 kts 158°
2026-04-22 21:20 33.77609 -118.02917 26302 ft 462 kts 158°
2026-04-22 21:20 33.74776 -118.01065 25614 ft 463 kts 158°
2026-04-22 21:21 33.71963 -117.99223 25243 ft 462 kts 158°
2026-04-22 21:21 33.69099 -117.97348 24728 ft 473 kts 158°
2026-04-22 21:21 33.66202 -117.95442 24360 ft 475 kts 158°
2026-04-22 21:21 33.63305 -117.93527 24243 ft 475 kts 158°
2026-04-22 21:22 33.60415 -117.91614 24178 ft 473 kts 158°
2026-04-22 21:22 33.57532 -117.89711 24173 ft 472 kts 158°
2026-04-22 21:22 33.54647 -117.87812 24170 ft 473 kts 158°
2026-04-22 21:22 33.51802 -117.85899 24170 ft 474 kts 157°
2026-04-22 21:23 33.48942 -117.83939 24169 ft 474 kts 157°
2026-04-22 21:23 33.46095 -117.81986 24124 ft 466 kts 157°
2026-04-22 21:23 33.43387 -117.79934 23390 ft 459 kts 149°
2026-04-22 21:23 33.40950 -117.77457 22282 ft 460 kts 143°
2026-04-22 21:24 33.38580 -117.74862 20951 ft 462 kts 143°
2026-04-22 21:24 33.36206 -117.72248 19692 ft 463 kts 142°
2026-04-22 21:24 33.33820 -117.69647 18496 ft 463 kts 143°
2026-04-22 21:24 33.31436 -117.67080 17290 ft 459 kts 142°
2026-04-22 21:25 33.29077 -117.64561 16300 ft 450 kts 142°
2026-04-22 21:25 33.26795 -117.62130 15490 ft 441 kts 142°
2026-04-22 21:25 33.24481 -117.59674 15160 ft 448 kts 142°
2026-04-22 21:25 33.22135 -117.57202 14655 ft 444 kts 142°
2026-04-22 21:26 33.19843 -117.54790 14271 ft 435 kts 142°
2026-04-22 21:26 33.17586 -117.52417 13703 ft 430 kts 142°
2026-04-22 21:26 33.15349 -117.50067 13034 ft 426 kts 142°
2026-04-22 21:26 33.13115 -117.47773 12462 ft 420 kts 145°
2026-04-22 21:27 33.10795 -117.45786 12369 ft 400 kts 149°
2026-04-22 21:27 33.08534 -117.43969 12251 ft 382 kts 149°
2026-04-22 21:27 33.06399 -117.42235 12110 ft 361 kts 149°
2026-04-22 21:27 33.04407 -117.40592 11971 ft 343 kts 148°
2026-04-22 21:28 33.02502 -117.38998 11793 ft 329 kts 148°
2026-04-22 21:28 33.00648 -117.37442 11353 ft 324 kts 148°
2026-04-22 21:28 32.98808 -117.35899 10861 ft 322 kts 148°
2026-04-22 21:28 32.96981 -117.34368 10398 ft 320 kts 148°
2026-04-22 21:29 32.95171 -117.32851 9952 ft 316 kts 147°
2026-04-22 21:29 32.93383 -117.31354 9461 ft 313 kts 147°
2026-04-22 21:29 32.91606 -117.29868 9076 ft 310 kts 147°
2026-04-22 21:29 32.89834 -117.28393 8780 ft 311 kts 147°
2026-04-22 21:30 32.88061 -117.26919 8464 ft 310 kts 147°
2026-04-22 21:30 32.86294 -117.25451 8162 ft 309 kts 147°
2026-04-22 21:30 32.84539 -117.23994 7869 ft 306 kts 147°
2026-04-22 21:30 32.82812 -117.22560 7555 ft 299 kts 146°
2026-04-22 21:31 32.81338 -117.20879 7259 ft 294 kts 122°
2026-04-22 21:31 32.80540 -117.18692 7007 ft 286 kts 106°
2026-04-22 21:31 32.80032 -117.16429 6759 ft 280 kts 102°
2026-04-22 21:31 32.79573 -117.14188 6476 ft 280 kts 102°
2026-04-22 21:32 32.79100 -117.11953 6307 ft 278 kts 102°
2026-04-22 21:32 32.78616 -117.09735 6175 ft 273 kts 103°
2026-04-22 21:32 32.78143 -117.07604 6023 ft 260 kts 104°
2026-04-22 21:32 32.77686 -117.05592 5846 ft 246 kts 104°
2026-04-22 21:33 32.77225 -117.03689 5648 ft 243 kts 104°
2026-04-22 21:33 32.76749 -117.01743 5463 ft 239 kts 104°
2026-04-22 21:33 32.76281 -116.99835 5287 ft 242 kts 103°
2026-04-22 21:33 32.75782 -116.97916 5045 ft 245 kts 110°
2026-04-22 21:34 32.74821 -116.96291 4740 ft 241 kts 140°
2026-04-22 21:34 32.73354 -116.95433 4464 ft 234 kts 170°
2026-04-22 21:34 32.71760 -116.95458 4230 ft 228 kts 196°
2026-04-22 21:34 32.70332 -116.96219 3979 ft 225 kts 218°
2026-04-22 21:35 32.69297 -116.97572 3710 ft 221 kts 243°
2026-04-22 21:35 32.68820 -116.99273 3404 ft 215 kts 266°
2026-04-22 21:35 32.68954 -117.00997 3109 ft 206 kts 285°
2026-04-22 21:35 32.69340 -117.02588 2856 ft 195 kts 287°
2026-04-22 21:36 32.69714 -117.04084 2610 ft 180 kts 287°
2026-04-22 21:36 32.70060 -117.05464 2391 ft 171 kts 287°
2026-04-22 21:36 32.70395 -117.06822 2172 ft 168 kts 286°
2026-04-22 21:36 32.70715 -117.08121 1934 ft 160 kts 286°
2026-04-22 21:37 32.71014 -117.09338 1738 ft 151 kts 285°
2026-04-22 21:37 32.71297 -117.10487 1589 ft 136 kts 284°
2026-04-22 21:37 32.71556 -117.11545 1359 ft 136 kts 286°
2026-04-22 21:37 32.71803 -117.12613 1145 ft 135 kts 287°
2026-04-22 21:38 32.72076 -117.13692 891 ft 140 kts 289°
2026-04-22 21:38 32.72353 -117.14810 729 ft 143 kts 287°
2026-04-22 21:38 32.72637 -117.15953 541 ft 145 kts 287°
2026-04-22 21:38 32.72910 -117.17118 312 ft 148 kts 287°
2026-04-22 21:39 32.73191 -117.18289 69 ft 142 kts 286°
2026-04-22 21:39 32.73440 -117.19310 21 ft 106 kts 287°
2026-04-22 21:39 32.73567 -117.19829 29 ft 50 kts 286°
2026-04-22 21:39 32.73624 -117.20190 21 ft 27 kts 240°
2026-04-22 21:40 32.73491 -117.20287 20 ft 23 kts 238°
2026-04-22 21:40 32.73460 -117.20337 22 ft 0 kts 231°
2026-04-22 21:40 32.73456 -117.20344 22 ft 2 kts 231°
2026-04-22 21:40 32.73455 -117.20344 22 ft 0 kts 231°